| time (UTC) | temp F | wind direction | speed MPH | gust MPH | rain 1hr in | rain 24hr in | rain mn in | humidity % | barometer mb |
| 20260505023001 | 67 | 233 | 1.0 | 5.0 | 0.00 | 0.00 | 0.00 | 63 | 1004.5 |
| 20260505021502 | 68 | 200 | 2.0 | 5.0 | 0.00 | 0.00 | 0.00 | 62 | 1004.8 |
| 20260505021500 | 68 | 200 | 1.0 | 5.0 | 0.00 | 0.00 | 0.00 | 62 | 1004.3 |
| 20260505020005 | 68 | 175 | 2.0 | 6.0 | 0.00 | 0.00 | 0.00 | 62 | 1004.7 |
| 20260505020003 | 68 | 175 | 2.0 | 6.0 | 0.00 | 0.00 | 0.00 | 62 | 1004.1 |
| 20260505014502 | 68 | 186 | 2.0 | 5.0 | 0.00 | 0.00 | 0.00 | 62 | 1004.6 |
| 20260505013003 | 69 | 203 | 1.0 | 4.0 | 0.00 | 0.00 | 0.00 | 61 | 1004.4 |
| 20260505013001 | 69 | 203 | 1.0 | 4.0 | 0.00 | 0.00 | 0.00 | 61 | 1003.9 |
| 20260505011502 | 69 | 185 | 1.0 | 5.0 | 0.00 | 0.00 | 0.00 | 60 | 1004.3 |
| 20260505010005 | 70 | 138 | 2.0 | 6.0 | 0.00 | 0.00 | 0.00 | 59 | 1004.3 |
| 20260505010003 | 70 | 138 | 0.0 | 6.0 | 0.00 | 0.00 | 0.00 | 59 | 1003.9 |
| 20260505004502 | 70 | 236 | 2.0 | 6.0 | 0.00 | 0.00 | 0.00 | 58 | 1004.3 |
| 20260505003002 | 71 | 169 | 1.0 | 4.0 | 0.00 | 0.00 | 0.00 | 56 | 1004.3 |
| 20260505003000 | 71 | 169 | 1.0 | 4.0 | 0.00 | 0.00 | 0.00 | 56 | 1003.8 |
| 20260505001501 | 71 | 145 | 0.0 | 8.0 | 0.00 | 0.00 | 0.00 | 55 | 1004.0 |
| 20260505000003 | 72 | 138 | 1.0 | 6.0 | 0.00 | 0.00 | 0.00 | 53 | 1004.7 |
| 20260504234501 | 73 | 238 | 3.0 | 9.0 | 0.00 | 0.00 | 0.00 | 51 | 1004.8 |
| 20260504233002 | 75 | 271 | 3.0 | 9.0 | 0.00 | 0.00 | 0.00 | 49 | 1004.9 |
| 20260504231501 | 75 | 243 | 4.0 | 13.0 | 0.00 | 0.00 | 0.00 | 51 | 1004.9 |
| 20260504230005 | 74 | 287 | 4.0 | 12.0 | 0.00 | 0.00 | 0.00 | 50 | 1004.9 |
| 20260504230003 | 74 | 287 | 4.0 | 12.0 | 0.00 | 0.00 | 0.00 | 50 | 1004.4 |
| 20260504224502 | 74 | 257 | 4.0 | 15.0 | 0.00 | 0.00 | 0.00 | 52 | 1005.1 |
| 20260504224500 | 74 | 257 | 4.0 | 15.0 | 0.00 | 0.00 | 0.00 | 52 | 1004.6 |
| 20260504223002 | 75 | 253 | 1.0 | 8.0 | 0.00 | 0.00 | 0.00 | 57 | 1004.6 |
| 20260504221502 | 74 | 182 | 2.0 | 8.0 | 0.00 | 0.00 | 0.00 | 56 | 1005.1 |
| 20260504221500 | 74 | 182 | 2.0 | 8.0 | 0.00 | 0.00 | 0.00 | 56 | 1004.7 |
| 20260504220004 | 75 | 249 | 3.0 | 7.0 | 0.00 | 0.00 | 0.00 | 55 | 1005.1 |
| 20260504214502 | 75 | 243 | 1.0 | 4.0 | 0.00 | 0.00 | 0.00 | 56 | 1005.6 |
| 20260504214500 | 75 | 243 | 0.0 | 4.0 | 0.00 | 0.00 | 0.00 | 56 | 1005.2 |
| 20260504213002 | 75 | 243 | 2.0 | 5.0 | 0.00 | 0.00 | 0.00 | 54 | 1005.8 |
| 20260504211502 | 75 | 159 | 3.0 | 8.0 | 0.00 | 0.00 | 0.00 | 54 | 1005.9 |
| 20260504210004 | 75 | 153 | 3.0 | 9.0 | 0.00 | 0.00 | 0.00 | 53 | 1006.0 |
| 20260504210002 | 75 | 153 | 3.0 | 9.0 | 0.00 | 0.00 | 0.00 | 53 | 1005.6 |
| 20260504204502 | 74 | 259 | 3.0 | 11.0 | 0.00 | 0.00 | 0.00 | 53 | 1006.2 |
| 20260504204500 | 74 | 259 | 3.0 | 11.0 | 0.00 | 0.00 | 0.00 | 53 | 1005.9 |
| 20260504203003 | 75 | 236 | 3.0 | 8.0 | 0.00 | 0.00 | 0.00 | 51 | 1006.5 |
| 20260504203001 | 75 | 236 | 4.0 | 8.0 | 0.00 | 0.00 | 0.00 | 51 | 1006.1 |
| 20260504201504 | 74 | 250 | 4.0 | 11.0 | 0.00 | 0.00 | 0.00 | 56 | 1006.7 |
| 20260504201501 | 74 | 250 | 2.0 | 11.0 | 0.00 | 0.00 | 0.00 | 56 | 1006.3 |
| 20260504200008 | 74 | 276 | 3.0 | 7.0 | 0.00 | 0.00 | 0.00 | 55 | 1006.5 |
| 20260504200005 | 74 | 276 | 3.0 | 7.0 | 0.00 | 0.00 | 0.00 | 55 | 1006.9 |
| 20260504193002 | 71 | 258 | 3.0 | 11.0 | 0.00 | 0.00 | 0.00 | 60 | 1007.6 |
| 20260504191503 | 71 | 244 | 1.0 | 4.0 | 0.00 | 0.00 | 0.00 | 63 | 1007.8 |
| 20260504190008 | 69 | 274 | 3.0 | 8.0 | 0.00 | 0.00 | 0.00 | 64 | 1007.8 |
| 20260504190005 | 69 | 274 | 2.0 | 8.0 | 0.00 | 0.00 | 0.00 | 64 | 1008.1 |
| 20260504184503 | 69 | 255 | 3.0 | 11.0 | 0.00 | 0.00 | 0.00 | 63 | 1008.0 |
| 20260504183004 | 69 | 255 | 3.0 | 8.0 | 0.00 | 0.00 | 0.00 | 62 | 1007.8 |
| 20260504183002 | 69 | 255 | 3.0 | 8.0 | 0.00 | 0.00 | 0.00 | 62 | 1007.5 |
| 20260504181505 | 69 | 262 | 4.0 | 11.0 | 0.00 | 0.00 | 0.00 | 62 | 1007.4 |
| 20260504180005 | 70 | 130 | 4.0 | 11.0 | 0.00 | 0.00 | 0.00 | 60 | 1007.5 |
| 20260504174502 | 69 | 257 | 4.0 | 12.0 | 0.00 | 0.00 | 0.00 | 62 | 1007.4 |
| 20260504173003 | 68 | 128 | 4.0 | 14.0 | 0.00 | 0.00 | 0.00 | 63 | 1007.6 |
| 20260504171502 | 68 | 144 | 2.0 | 7.0 | 0.00 | 0.00 | 0.00 | 64 | 1007.3 |
| 20260504081502 | 52 | 129 | 3.0 | 5.0 | 0.00 | 0.00 | 0.00 | 66 | 1009.7 |
| 20260504050005 | 51 | 112 | 1.0 | 5.0 | 0.00 | 0.00 | 0.00 | 66 | 1011.3 |
| 20260504044504 | 51 | 219 | 2.0 | 5.0 | 0.00 | 0.00 | 0.00 | 66 | 1011.4 |
| 20260504044501 | 51 | 219 | 1.0 | 5.0 | 0.00 | 0.00 | 0.00 | 66 | 1011.8 |
| 20260504043003 | 51 | 127 | 2.0 | 4.0 | 0.00 | 0.00 | 0.00 | 65 | 1011.4 |
| 20260504041503 | 51 | 174 | 2.0 | 4.0 | 0.00 | 0.00 | 0.00 | 65 | 1011.6 |
| 20260504040006 | 52 | 231 | 1.0 | 3.0 | 0.00 | 0.00 | 0.00 | 65 | 1011.7 |
| 20260504034502 | 52 | 157 | 1.0 | 4.0 | 0.00 | 0.00 | 0.00 | 63 | 1011.9 |
| 20260504033001 | 53 | 174 | 0.0 | 4.0 | 0.00 | 0.00 | 0.00 | 61 | 1012.4 |
| 20260504031502 | 54 | 169 | 2.0 | 4.0 | 0.00 | 0.00 | 0.00 | 60 | 1012.0 |
| 20260504030004 | 54 | 178 | 2.0 | 5.0 | 0.00 | 0.00 | 0.00 | 59 | 1012.2 |
| 20260504030002 | 54 | 179 | 2.0 | 5.0 | 0.00 | 0.00 | 0.00 | 59 | 1012.6 |
| 20260504024505 | 54 | 123 | 1.0 | 4.0 | 0.00 | 0.00 | 0.00 | 58 | 1012.6 |
| 20260504024502 | 54 | 123 | 1.0 | 4.0 | 0.00 | 0.00 | 0.00 | 58 | 1012.2 |